x

Western Caribbean - 195 Nm Wsw Of Negril Jamiaca (42057) Wave Buoy

2:50 - Wed 16th Apr 2014 All times are UTC.

  • Sig Wave height 2.6ft
  • Swell Direction
  • Peak Period 8s
  • Average Period 5s
  • Wind
    11mph, 13mph gusts
  • Sea Temp 82°f
  • Ar Temp 81°f
  • Sea Pressure 1014.8mb

More Historic Weather Station data

Upgrade to MSW Pro to gain access to the past 30 days of data for over 8000 Wavebouys and Weather Stations around the globe.

Join Pro

Comparision Forecast

View Surf forecast
   
Qua 04/16 2:50 2.5ft 8s 5s 11 13 mph 1014.8mb 82f 81f
1:50 3ft 7s 5s 13 16 mph 1014.4mb 82f 81f
12:50 3ft 8s 5s 13 16 mph 1014.3mb 82f 81f
11:50 3ft 8s 5s 11 13 mph 1013.7mb 82f 81f
10:50 3ft 8s 5s 11
mph
1013.7mb 82f 81f
9:50 3ft 8s 5s 11 13 mph 1013mb 82f 81f
8:50 3ft 8s 5s 11 13 mph 1012.6mb 82f 80f
7:50 3ft 6s 5s 11 16 mph 1012.4mb 82f 81f
6:50 3.5ft 8s 5s 13 16 mph 1012.8mb 82f 81f
5:50 3.5ft 8s 5s 11 13 mph 1013.3mb 82f 81f
4:50 3.5ft 8s 5s 11 13 mph 1013.7mb 82f 81f
3:50 3.5ft 8s 5s 11 13 mph 1013.5mb 82f 81f
2:50 3.5ft 8s 5s 11 13 mph 1013.1mb 82f 81f
1:50 3.5ft 8s 5s 11 16 mph 1012.4mb 82f 81f
12:50 3.5ft 8s 5s 11 13 mph 1012mb 83f 82f
Ter 04/15 11:50 3.5ft 8s 5s 13 16 mph 1011.3mb 83f 81f
10:50 3.5ft 8s 5s 13 16 mph 1011mb 83f 81f
9:50 3.5ft 8s 5s 13 16 mph 1010.8mb 83f 82f
8:50 3.5ft 8s 5s 13 16 mph 1011.1mb 83f 82f
7:50 3.5ft 8s 5s 11 16 mph 1011.4mb 83f 82f
6:50 3.5ft 8s 5s 13 16 mph 1012.1mb 83f 82f
5:50 3.5ft 8s 5s 13
mph
1012.5mb 83f 81f
4:50 3.5ft 8s 5s 11 16 mph 1012.9mb 83f 81f
3:50 3.5ft 7s 5s 13 16 mph 1013.5mb 82f 81f
2:50 3.5ft 8s 5s 13 16 mph 1013.4mb 82f 81f
1:50 3.5ft 8s 5s 13 18 mph 1013.3mb 82f 81f
12:50 3.5ft 9s 5s 13 16 mph 1012.7mb 82f 81f
11:50 4ft 8s 5s 16 18 mph 1012mb 82f 81f
10:50 4.5ft 8s 5s 13 18 mph 1011.4mb 82f 81f
9:50 4ft 8s 5s 13 18 mph 1010.7mb 82f 80f
8:50 3.5ft 6s 5s 16 18 mph 1010.4mb 82f 81f
7:50 3.5ft 7s 5s 16 18 mph 1010.4mb 82f 81f
6:50 4ft 8s 5s 13 18 mph 1011mb 82f 81f
5:50 3.5ft 8s 5s 16 18 mph 1011.6mb 82f 81f
4:50 3.5ft 8s 5s 16 20 mph 1012.2mb 82f 81f
3:50 3.5ft 9s 5s 16 18 mph 1012.4mb 82f 81f
2:50 3.5ft 9s 4s 16 18 mph 1012.3mb 82f 81f
1:50 3.5ft 8s 5s 18 20 mph 1011.8mb 82f 81f
12:50 4ft 9s 5s 16 20 mph 1011.3mb 82f 81f
Seg 04/14 11:50 3.5ft 8s 5s 16 18 mph 1010.8mb 83f 82f
10:50 4ft 9s 5s 16 18 mph 1010.7mb 82f 82f
9:50 4ft 8s 5s 16 20 mph 1010.5mb 82f 82f
8:50 4.5ft 9s 5s 18 20 mph 1010.8mb 82f 82f
7:50 4ft 8s 5s 16 20 mph 1011.2mb 83f 82f
6:50 4.5ft 8s 5s 16 18 mph 1012.1mb 82f 82f
5:50 4.5ft 8s 5s 18 20 mph 1012.8mb 82f 82f
4:50 4.5ft 8s 5s 18 20 mph 1013.4mb 82f 82f
3:50 4ft 9s 5s 18 20 mph 1013.5mb 82f 82f
2:50 4ft 9s 5s 16 20 mph 1013.8mb 82f 82f
1:50 4ft 9s 5s 16 18 mph 1013.6mb 82f 81f
12:50 4ft 9s 5s 16 18 mph 1013.2mb 82f 81f
11:50 4ft 7s 5s 16 20 mph 1012.1mb 82f 81f
10:50 4ft 8s 5s 16 18 mph 1011.5mb 82f 81f
9:50 4.5ft 8s 5s 16 18 mph 1011mb 82f 81f
8:50 4ft 9s 5s 13 18 mph 1011.1mb 82f 81f
7:50 4.5ft 6s 5s 13 18 mph 1011.3mb 82f 81f
6:50 4.5ft 9s 5s 13 16 mph 1012mb 82f 81f
5:50 4.5ft 7s 5s 13 16 mph 1012.7mb 82f 81f
4:50 4.5ft 9s 5s 13 18 mph 1013.5mb 82f 81f
3:50 4.5ft 9s 5s 18 20 mph 1013.6mb 82f 82f
2:50 4ft 9s 5s 18 20 mph 1013.6mb 82f 82f
1:50 4.5ft 9s 5s 16 18 mph 1013.1mb 82f 82f
12:50 4.5ft 9s 5s 16 18 mph 1012.2mb 82f 82f
Dom 04/13 11:50 4ft 6s 5s 18 20 mph 1012mb 82f 82f
10:50 4ft 6s 5s 18 20 mph 1011.7mb 82f 82f
9:50 4.5ft 9s 5s 18 20 mph 1011.5mb 83f 82f
8:50 4.5ft 9s 5s 18 20 mph 1011.6mb 83f 82f
7:50 4.5ft 8s 5s 16 18 mph 1012.2mb 83f 82f
6:50 4.5ft 9s 5s 16 18 mph 1013.3mb 83f 82f
5:50 4.5ft 9s 5s 16 20 mph 1014mb 83f 82f
4:50 4ft 9s 5s 16 18 mph 1014.5mb 83f 82f
3:50 4.5ft 9s 5s 13 16 mph 1015mb 82f 82f
2:50 4ft 6s 5s 13 16 mph 1014.9mb 82f 82f
1:50 4ft 7s 5s 16 20 mph 1014.2mb 82f 82f
12:50 4ft 8s 5s 13 18 mph 1013.8mb 82f 81f
11:50 4.5ft 6s 5s 16 18 mph 1012.9mb 82f 82f
10:50 4.5ft 6s 6s 11 16 mph 1012.7mb 82f 81f
9:50 5ft 6s 6s 13 16 mph 1012.4mb 82f 81f
8:50 4.5ft 9s 6s 13 16 mph 1012.3mb 82f 81f
7:50 5ft 7s 6s 13 16 mph 1012.4mb 82f 81f
6:50 5.5ft 9s 6s 11 13 mph 1013.2mb 82f 81f
5:50 5ft 7s 6s 13 16 mph 1014mb 82f 81f
4:50 5ft 9s 6s 13 18 mph 1014.5mb 82f 82f
3:50 5ft 7s 6s 13 16 mph 1014.6mb 82f 82f
2:50 4.5ft 8s 5s 13 18 mph 1014.5mb 82f 82f
1:50 4.5ft 8s 5s 16 18 mph 1013.8mb 82f 82f
12:50 5ft 9s 5s 13 16 mph 1013.3mb 82f 82f
Sáb 04/12 11:50 5ft 7s 5s 13 16 mph 1013mb 82f 82f
10:50 4.5ft 6s 5s 13 18 mph 1012.7mb 82f 82f
9:50 4ft 9s 5s 16 18 mph 1012.3mb 82f 82f
8:50 4ft 8s 5s 18 20 mph 1012.4mb 83f 82f
7:50 4ft 9s 5s 16 20 mph 1013.1mb 83f 82f
6:50 3.5ft 8s 5s 18 20 mph 1013.8mb 83f 82f
5:50 3.5ft 8s 5s 13 18 mph 1014.6mb 83f 82f
4:50 3.5ft 10s 5s 13 16 mph 1015.2mb 82f 82f